• Join FlightAware (Why Join?)
  • Login
  • US Flag 
08:07AM EDT


 

Airport Tracker/Info


-or-


 

Live Flight TrackerFlight Track Log ✈ N147SW ✈ 30-Apr-2014 ✈ KDAL - KAUS

Flight Track Log - Related Links

Times and Time Zones

All times are in EDT time to prevent confusion due to time zone crossing. See the N147SW flight status page for this flight to view local times or setup timezone preferences in your user account.

Time Position Orientation Groundspeed Altitude Reporting Facility
EDT Latitude Longitude Course Direction KTS MPH feet Rate Location/Type
03:00PM 32.8667 -96.8667 320° Northwest 160 184 2,300  Level Dallas / Fort Worth TRACON
03:01PM 32.8833 -96.8833 320° Northwest 153 176 4,500 4,140 Climbing Dallas / Fort Worth TRACON
03:02PM 32.8833 -96.9333 270° West 214 246 8,100 2,820 Climbing Dallas / Fort Worth TRACON
03:03PM 32.8689 -96.9981 255° West 229 264 10,200 2,700 Climbing Fort Worth Center
03:04PM 32.7936 -97.0389 205° Southwest 314 361 13,700 2,940 Climbing Fort Worth Center
03:05PM 32.6944 -97.0431 182° South 352 405 16,300 1,560 Climbing Fort Worth Center
03:06PM 32.5839 -97.0486 182° South 395 455 17,000 1,740 Climbing Fort Worth Center
03:07PM 32.4600 -97.0506 181° South 427 491 20,000 2,400 Climbing Fort Worth Center
03:08PM 32.3456 -97.0556 182° South 386 444 22,000 960 Climbing Fort Worth Center
03:09PM 32.2308 -97.0611 182° South 409 471 22,000  Level Fort Worth Center
03:10PM 32.1181 -97.0633 181° South 424 488 22,000  Level Fort Worth Center
03:11PM 31.9975 -97.0669 181° South 431 496 22,000  Level Fort Worth Center
03:12PM 31.8539 -97.0719 182° South 431 496 22,000  Level Fort Worth Center
03:13PM 31.7350 -97.0747 181° South 430 495 22,000  Level Fort Worth Center
03:14PM 31.6161 -97.0803 182° South 429 494 22,000  Level Fort Worth Center
03:15PM 31.5006 -97.0942 186° South 428 493 22,000  Level Fort Worth Center
03:16PM 31.3925 -97.1358 198° South 413 475 22,000  Level Fort Worth Center
03:17PM 31.2825 -97.1786 198° South 412 474 22,000 -1,020 Level Fort Worth Center
03:18PM 31.1475 -97.2322 199° South 422 486 20,000 -2,040 Descending Fort Worth Center
03:19PM 31.0394 -97.2753 199° South 422 486 17,800 -2,160 Descending Fort Worth Center
03:20PM 30.9303 -97.3172 198° South 411 473 15,600 -2,280 Descending Fort Worth Center
03:21PM 30.8131 -97.3625 198° South 408 470 13,200 -1,680 Descending Fort Worth Center
03:22PM 30.7547 -97.3853 199° South 389 448 12,600 -1,500 Descending Houston Center
03:23PM 30.6364 -97.4311 198° South 377 434 10,600 -1,260 Descending Houston Center
03:24PM 30.5369 -97.4700 199° South 377 434 10,100 -1,020 Descending Houston Center
03:25PM 30.4592 -97.4983 197° South 306 352 8,500 -1,020 Descending Houston Center
03:26PM 30.3822 -97.5283 199° South 295 339 8,000 -900 Descending Houston Center
03:27PM 30.2967 -97.5317 182° South 307 353 6,700 -1,500 Descending Houston Center
03:28PM 30.1953 -97.5358 182° South 308 354 5,000 -1,500 Descending Houston Center
03:29PM 30.1339 -97.5733 208° Southwest 285 328 3,600 -1,080 Descending Houston Center
03:30PM 30.1367 -97.6394 273° West 221 254 2,800 -1,080 Descending Houston Center
03:31PM 30.1722 -97.6597 334° Northwest 190 219 1,400 -1,380 Descending Houston Center
03:34PM 30.1833 -97.6667 300° West  Level FlightAware Approximate